Location: Unspecified
(42.2730°N, 83.7130°W)
Time: 13:52:59
(UTC+00:00)

Daily predictions for brighter satellites

Satellite Brightness Start Highest point End
(mag) Time Altitude Azimuth Time Altitude Azimuth Time Altitude Azimuth
Meteor 2-12 Rocket 4.5 23:10:44 10° N 23:16:56 78° E 23:23:05 10° SSE
SKYMED 2 4.0 23:15:48 10° NNE 23:19:56 42° E 23:24:03 10° S
YAOGAN 1 3.4 23:17:19 10° SE 23:21:02 29° ENE 23:24:46 10° N
H-2A R/B 3.2 23:17:59 10° S 23:21:51 70° W 23:25:47 10° NNW
BREEZE-M DEB (TANK) 4.4 23:07:10 10° SW 23:23:36 50° SSE 23:27:56 10° ENE
YAOGAN 6 3.2 23:22:34 10° SE 23:25:56 35° ENE 23:29:16 10° N
SL-4 R/B 2.8 23:23:20 10° WNW 23:27:06 47° SW 23:30:35 10° SSE
Cosmos 1833 Rocket 3.7 23:24:12 10° N 23:28:54 26° NE 23:33:32 10° ESE
Cosmos 1726 Rocket 3.6 23:27:07 10° S 23:31:31 88° W 23:35:55 10° N
Cosmos 2228 3.2 23:27:58 10° S 23:32:20 82° W 23:36:43 10° N
Cosmos 1703 3.7 23:30:20 10° N 23:34:04 40° ENE 23:37:44 10° SSE
Cosmos 1356 3.4 23:33:16 10° S 23:36:39 58° E 23:40:03 10° NNE
Meteor 2-10 3.9 23:35:00 10° S 23:40:01 63° E 23:45:00 10° NNE
Cosmos 921 Rocket 3.4 23:37:07 10° SSW 23:41:36 70° WNW 23:46:04 10° NNE
Cosmos 489 Rocket 4.4 23:37:45 10° S 23:43:56 72° ESE 23:50:07 10° NNE
Cosmos 1953 4.1 23:42:44 10° SW 23:46:31 37° WNW 23:50:19 10° N
Cosmos 482 Debris 4.2 23:42:47 10° NW 23:48:00 90° W 23:50:33 15° SE
Cosmos 2058 Rocket 3.1 23:45:46 10° S 23:50:07 86° W 23:54:30 10° N
Envisat 3.2 23:45:14 10° S 23:50:19 78° WSW 23:55:25 10° NNW
ASTEX 1 3.4 23:46:07 10° N 23:51:05 89° ENE 23:56:04 10° S
Cosmos 292 Rocket 3.7 23:46:26 10° SSW 23:51:10 89° WNW 23:55:57 10° NNE
Cosmos 2082 Rocket 3.1 23:48:48 10° N 23:53:44 29° NE 23:56:47 18° E
